Time,TemperatureF,DewpointF,PressureIn,WindDirection,WindDirectionDegrees,WindSpeedMPH,WindSpeedGustMPH,Humidity,HourlyPrecipIn,Conditions,Clouds,dailyrainin,SoftwareType,DateUTC
2013-06-08 00:14:00,50.5,50.0,29.87,NE,56,0.0,0.0,97,0.01,,,0.01,weatherlink.com 1.10,2013-06-08 04:14:00,
2013-06-08 00:29:00,50.6,50.0,29.86,North,359,0.0,0.0,97,0.03,,,0.03,weatherlink.com 1.10,2013-06-08 04:29:00,
2013-06-08 00:44:00,50.6,50.0,29.85,NNW,342,0.0,0.0,97,0.03,,,0.03,weatherlink.com 1.10,2013-06-08 04:44:00,
2013-06-08 00:59:00,50.6,50.0,29.82,NNW,339,0.0,0.0,97,0.05,,,0.05,weatherlink.com 1.10,2013-06-08 04:59:00,
2013-06-08 01:14:00,50.7,50.0,29.82,NE,56,0.0,0.0,97,0.06,,,0.07,weatherlink.com 1.10,2013-06-08 05:14:00,
2013-06-08 01:29:00,50.8,50.0,29.81,WSW,258,0.0,0.0,97,0.06,,,0.09,weatherlink.com 1.10,2013-06-08 05:29:00,
2013-06-08 01:44:00,50.9,50.0,29.79,NW,314,0.0,0.0,97,0.11,,,0.14,weatherlink.com 1.10,2013-06-08 05:44:00,
2013-06-08 01:59:00,50.9,50.0,29.78,NNE,24,0.0,0.0,97,0.18,,,0.23,weatherlink.com 1.10,2013-06-08 05:59:00,
2013-06-08 02:14:00,50.9,50.0,29.79,West,260,0.0,0.0,97,0.30,,,0.37,weatherlink.com 1.10,2013-06-08 06:14:00,
2013-06-08 02:29:00,51.0,50.0,29.77,West,259,0.0,0.0,97,0.40,,,0.49,weatherlink.com 1.10,2013-06-08 06:29:00,
2013-06-08 02:44:00,51.0,50.0,29.79,NW,322,0.0,0.0,97,0.44,,,0.59,weatherlink.com 1.10,2013-06-08 06:44:00,
2013-06-08 02:59:00,51.0,50.0,29.75,NNE,20,0.0,0.0,97,0.43,,,0.66,weatherlink.com 1.10,2013-06-08 06:59:00,
2013-06-08 03:14:00,51.1,50.0,29.74,WSW,255,0.0,0.0,97,0.33,,,0.71,weatherlink.com 1.10,2013-06-08 07:14:00,
2013-06-08 03:29:00,51.2,50.0,29.74,WSW,238,0.0,0.0,97,0.21,,,0.71,weatherlink.com 1.10,2013-06-08 07:29:00,
2013-06-08 03:44:00,51.2,50.0,29.74,North,355,0.0,0.0,97,0.11,,,0.71,weatherlink.com 1.10,2013-06-08 07:44:00,
2013-06-08 03:59:00,51.4,51.0,29.73,WSW,238,0.0,0.0,97,0.04,,,0.71,weatherlink.com 1.10,2013-06-08 07:59:00,
2013-06-08 04:14:00,51.4,51.0,29.73,WSW,238,0.0,0.0,97,0.01,,,0.72,weatherlink.com 1.10,2013-06-08 08:14:00,
2013-06-08 04:29:00,51.5,51.0,29.72,NW,312,0.0,0.0,97,0.01,,,0.72,weatherlink.com 1.10,2013-06-08 08:29:00,
2013-06-08 04:44:00,51.6,51.0,29.71,West,278,0.0,0.0,97,0.02,,,0.73,weatherlink.com 1.10,2013-06-08 08:44:00,
2013-06-08 04:59:00,51.6,51.0,29.71,NNW,335,0.0,0.0,97,0.02,,,0.73,weatherlink.com 1.10,2013-06-08 08:59:00,
2013-06-08 05:15:00,51.6,51.0,29.70,North,3,0.0,0.0,97,0.02,,,0.74,weatherlink.com 1.10,2013-06-08 09:15:00,
2013-06-08 05:30:00,51.6,51.0,29.70,NW,323,0.0,0.0,97,0.01,,,0.74,weatherlink.com 1.10,2013-06-08 09:30:00,
2013-06-08 05:45:00,51.6,51.0,29.70,NW,323,0.0,0.0,97,0.02,,,0.75,weatherlink.com 1.10,2013-06-08 09:45:00,
2013-06-08 06:00:00,51.8,51.0,29.69,NW,326,0.0,0.0,97,0.02,,,0.75,weatherlink.com 1.10,2013-06-08 10:00:00,
2013-06-08 06:15:00,52.0,51.0,29.69,WNW,298,0.0,0.0,97,0.01,,,0.75,weatherlink.com 1.10,2013-06-08 10:15:00,
2013-06-08 06:30:00,52.0,51.0,29.69,NW,321,0.0,0.0,97,0.02,,,0.76,weatherlink.com 1.10,2013-06-08 10:30:00,
2013-06-08 06:45:00,52.1,51.0,29.69,NNW,328,0.0,0.0,97,0.03,,,0.78,weatherlink.com 1.10,2013-06-08 10:45:00,
2013-06-08 07:00:00,52.5,52.0,29.69,NNW,338,0.0,0.0,97,0.05,,,0.80,weatherlink.com 1.10,2013-06-08 11:00:00,
2013-06-08 07:15:00,52.6,52.0,29.69,NNW,334,0.0,0.0,97,0.05,,,0.80,weatherlink.com 1.10,2013-06-08 11:15:00,
2013-06-08 07:30:00,52.8,52.0,29.69,NW,326,0.0,0.0,97,0.04,,,0.81,weatherlink.com 1.10,2013-06-08 11:30:00,
2013-06-08 07:45:00,53.1,52.0,29.69,NW,318,0.0,0.0,97,0.03,,,0.81,weatherlink.com 1.10,2013-06-08 11:45:00,
2013-06-08 08:00:00,53.4,53.0,29.68,North,5,0.0,0.0,97,0.01,,,0.81,weatherlink.com 1.10,2013-06-08 12:00:00,
2013-06-08 08:15:00,54.2,53.0,29.69,North,354,0.0,0.0,97,0.01,,,0.81,weatherlink.com 1.10,2013-06-08 12:15:00,
2013-06-08 08:30:00,54.5,54.0,29.70,NW,325,0.0,0.0,97,0.00,,,0.81,weatherlink.com 1.10,2013-06-08 12:30:00,
2013-06-08 08:45:00,54.9,54.0,29.71,NNW,332,0.0,0.0,97,0.00,,,0.81,weatherlink.com 1.10,2013-06-08 12:45:00,
2013-06-08 09:00:00,55.6,55.0,29.72,North,8,0.0,0.0,97,0.00,,,0.81,weatherlink.com 1.10,2013-06-08 13:00:00,
2013-06-08 09:15:00,56.0,55.0,29.73,SSE,160,0.0,0.0,96,0.00,,,0.81,weatherlink.com 1.10,2013-06-08 13:15:00,
2013-06-08 09:30:00,56.8,55.0,29.74,NNW,334,0.0,0.0,95,0.00,,,0.81,weatherlink.com 1.10,2013-06-08 13:30:00,
2013-06-08 09:45:00,57.4,56.0,29.74,SE,132,0.0,0.0,96,0.00,,,0.81,weatherlink.com 1.10,2013-06-08 13:45:00,
2013-06-08 10:00:00,58.5,57.0,29.74,NW,325,0.0,0.0,94,0.00,,,0.81,weatherlink.com 1.10,2013-06-08 14:00:00,
2013-06-08 10:15:00,59.8,58.0,29.75,WNW,282,0.0,0.0,94,0.00,,,0.81,weatherlink.com 1.10,2013-06-08 14:15:00,
2013-06-08 10:30:00,61.2,58.0,29.74,NNE,23,0.0,0.0,90,0.00,,,0.81,weatherlink.com 1.10,2013-06-08 14:30:00,
2013-06-08 10:45:00,62.8,58.0,29.74,North,349,0.0,0.0,85,0.00,,,0.81,weatherlink.com 1.10,2013-06-08 14:45:00,
2013-06-08 11:00:00,64.3,59.0,29.75,North,355,0.0,0.0,84,0.00,,,0.81,weatherlink.com 1.10,2013-06-08 15:00:00,
2013-06-08 11:15:00,64.8,60.0,29.76,NNW,335,0.0,0.0,84,0.00,,,0.81,weatherlink.com 1.10,2013-06-08 15:15:00,
2013-06-08 11:30:00,66.3,60.0,29.77,South,190,0.0,1.0,79,0.00,,,0.81,weatherlink.com 1.10,2013-06-08 15:30:00,
2013-06-08 11:45:00,67.2,60.0,29.78,North,349,0.0,4.0,78,0.00,,,0.81,weatherlink.com 1.10,2013-06-08 15:45:00,
2013-06-08 12:01:00,66.9,59.0,29.79,NNW,338,0.0,0.0,76,0.00,,,0.81,weatherlink.com 1.10,2013-06-08 16:01:00,
2013-06-08 12:16:00,67.3,61.0,29.79,SSE,148,0.0,0.0,81,0.00,,,0.81,weatherlink.com 1.10,2013-06-08 16:16:00,
2013-06-08 12:31:00,69.1,61.0,29.79,West,272,0.0,0.0,76,0.00,,,0.81,weatherlink.com 1.10,2013-06-08 16:31:00,
2013-06-08 12:46:00,69.3,61.0,29.79,East,85,0.0,0.0,76,0.00,,,0.81,weatherlink.com 1.10,2013-06-08 16:46:00,
2013-06-08 13:01:00,70.6,62.0,29.80,SE,141,0.0,0.0,74,0.00,,,0.81,weatherlink.com 1.10,2013-06-08 17:01:00,
2013-06-08 13:16:00,70.7,61.0,29.80,North,9,0.0,0.0,71,0.00,,,0.81,weatherlink.com 1.10,2013-06-08 17:16:00,
2013-06-08 13:31:00,73.2,62.0,29.80,NNE,16,0.0,0.0,67,0.00,,,0.81,weatherlink.com 1.10,2013-06-08 17:31:00,
2013-06-08 13:46:00,73.9,62.0,29.80,SE,131,0.0,0.0,67,0.00,,,0.81,weatherlink.com 1.10,2013-06-08 17:46:00,
2013-06-08 14:01:00,74.2,61.0,29.81,NE,39,0.0,0.0,63,0.00,,,0.81,weatherlink.com 1.10,2013-06-08 18:01:00,
2013-06-08 14:16:00,73.6,62.0,29.81,ENE,58,0.0,0.0,66,0.00,,,0.81,weatherlink.com 1.10,2013-06-08 18:16:00,
2013-06-08 14:31:00,73.9,63.0,29.82,SE,131,0.0,0.0,68,0.00,,,0.81,weatherlink.com 1.10,2013-06-08 18:31:00,
2013-06-08 15:01:00,73.8,61.0,29.82,NW,308,0.0,0.0,65,0.00,,,0.81,weatherlink.com 1.10,2013-06-08 19:01:00,
2013-06-08 15:31:00,72.4,61.0,29.83,NNE,33,0.0,0.0,68,0.00,,,0.81,weatherlink.com 1.10,2013-06-08 19:31:00,
2013-06-08 15:46:00,72.9,61.0,29.85,NNE,21,0.0,0.0,67,0.00,,,0.81,weatherlink.com 1.10,2013-06-08 19:46:00,
2013-06-08 16:01:00,72.9,61.0,29.85,SE,146,0.0,0.0,67,0.00,,,0.81,weatherlink.com 1.10,2013-06-08 20:01:00,
2013-06-08 16:16:00,73.5,61.0,29.85,NNW,342,0.0,0.0,64,0.00,,,0.81,weatherlink.com 1.10,2013-06-08 20:16:00,
2013-06-08 16:31:00,71.9,61.0,29.86,North,9,0.0,0.0,69,0.00,,,0.81,weatherlink.com 1.10,2013-06-08 20:31:00,
2013-06-08 16:46:00,71.1,61.0,29.86,SW,226,0.0,0.0,71,0.00,,,0.81,weatherlink.com 1.10,2013-06-08 20:46:00,
2013-06-08 17:01:00,70.7,60.0,29.87,East,89,0.0,0.0,70,0.00,,,0.81,weatherlink.com 1.10,2013-06-08 21:01:00,
2013-06-08 17:31:00,69.6,60.0,29.89,ENE,68,0.0,0.0,71,0.00,,,0.81,weatherlink.com 1.10,2013-06-08 21:31:00,
2013-06-08 18:01:00,68.5,60.0,29.90,SE,144,0.0,0.0,74,0.00,,,0.81,weatherlink.com 1.10,2013-06-08 22:01:00,
2013-06-08 18:16:00,67.9,60.0,29.91,NNW,327,0.0,0.0,75,0.00,,,0.81,weatherlink.com 1.10,2013-06-08 22:16:00,
2013-06-08 18:31:00,67.5,59.0,29.91,NNE,27,0.0,0.0,75,0.00,,,0.81,weatherlink.com 1.10,2013-06-08 22:31:00,
2013-06-08 18:46:00,67.2,60.0,29.91,NNE,24,0.0,0.0,78,0.00,,,0.81,weatherlink.com 1.10,2013-06-08 22:46:00,
2013-06-08 19:01:00,66.7,59.0,29.91,North,360,0.0,0.0,77,0.00,,,0.81,weatherlink.com 1.10,2013-06-08 23:01:00,
2013-06-08 19:16:00,66.1,59.0,29.91,North,349,0.0,0.0,78,0.00,,,0.81,weatherlink.com 1.10,2013-06-08 23:16:00,
2013-06-08 19:31:00,65.9,60.0,29.92,NNW,330,0.0,0.0,81,0.00,,,0.81,weatherlink.com 1.10,2013-06-08 23:31:00,
2013-06-08 19:46:00,65.2,60.0,29.93,NNW,330,0.0,0.0,82,0.00,,,0.81,weatherlink.com 1.10,2013-06-08 23:46:00,
2013-06-08 20:01:00,64.9,60.0,29.93,NNW,330,0.0,0.0,83,0.00,,,0.81,weatherlink.com 1.10,2013-06-09 00:01:00,
2013-06-08 20:16:00,64.3,59.0,29.93,NNW,330,0.0,0.0,83,0.00,,,0.81,weatherlink.com 1.10,2013-06-09 00:16:00,
2013-06-08 20:31:00,64.1,60.0,29.93,NNW,330,0.0,0.0,87,0.00,,,0.81,weatherlink.com 1.10,2013-06-09 00:31:00,
2013-06-08 20:46:00,63.7,60.0,29.94,NNW,330,0.0,0.0,88,0.00,,,0.81,weatherlink.com 1.10,2013-06-09 00:46:00,
2013-06-08 21:01:00,63.3,60.0,29.95,NNW,330,0.0,0.0,88,0.00,,,0.81,weatherlink.com 1.10,2013-06-09 01:01:00,
2013-06-08 21:32:00,63.7,60.0,29.97,SE,127,0.0,0.0,87,0.00,,,0.81,weatherlink.com 1.10,2013-06-09 01:32:00,
2013-06-08 21:46:00,63.7,60.0,29.97,North,356,0.0,0.0,87,0.00,,,0.81,weatherlink.com 1.10,2013-06-09 01:46:00,
2013-06-08 22:02:00,63.5,60.0,29.97,NNW,333,0.0,0.0,87,0.00,,,0.81,weatherlink.com 1.10,2013-06-09 02:02:00,
2013-06-08 22:17:00,62.9,60.0,29.98,NNW,338,0.0,0.0,89,0.00,,,0.81,weatherlink.com 1.10,2013-06-09 02:17:00,
2013-06-08 22:32:00,62.7,60.0,29.99,NNW,338,0.0,0.0,90,0.00,,,0.81,weatherlink.com 1.10,2013-06-09 02:32:00,
2013-06-08 22:47:00,62.5,60.0,29.98,NNW,332,0.0,0.0,91,0.00,,,0.81,weatherlink.com 1.10,2013-06-09 02:47:00,
2013-06-08 23:02:00,62.1,60.0,29.99,North,357,0.0,0.0,91,0.00,,,0.81,weatherlink.com 1.10,2013-06-09 03:02:00,
2013-06-08 23:17:00,61.6,59.0,29.99,North,357,0.0,0.0,92,0.00,,,0.81,weatherlink.com 1.10,2013-06-09 03:17:00,
2013-06-08 23:32:00,60.9,59.0,29.99,North,356,0.0,0.0,92,0.00,,,0.81,weatherlink.com 1.10,2013-06-09 03:32:00,
2013-06-08 23:47:00,60.3,58.0,30.00,North,356,0.0,0.0,93,0.00,,,0.81,weatherlink.com 1.10,2013-06-09 03:47:00,